056  
ASUS43 KIWX 231110  
RWRIWX  
 
KIWX WEATHER ROUNDUP  
NATIONAL WEATHER SERVICE NORTHERN INDIANA  
700 AM EDT SAT MAR 23 2019  
 
NOTE: "FAIR" INDICATES FEW OR NO CLOUDS BELOW 12,000 FEET WITH NO  
SIGNIFICANT WEATHER AND/OR S TO VISIBILITY
.  
 
* THESE STATIONS ARE NOT UNDER NWS QUALITY CONTROL. THEY ALSO MAY NOT  
REPORT WEATHER SUCH AS PRECIPITATION OR FOG.
 
 
INZ001>027-231200-  
NORTHERN INDIANA  
 
CITY SKY/WX TMP DP RH WIND PRES REMARKS
 
GARY* CLEAR 27 27 100 CALM 30.30R  
VALPARAISO FAIR 28 23 81 NW3 30.29R  
MICHIGAN CITY* FAIR 23 21 93 CALM 30.30R  
LAPORTE* FAIR 23 22 96 NW5 30.29R WCI 16  
KNOX* FAIR 21 19 93 CALM 30.28R  
SOUTH BEND FAIR 19 16 88 NW5 30.28R WCI 12  
GOSHEN FAIR 23 18 81 CALM 30.26R  
MONTICELLO* FAIR 24 21 87 CALM 30.27R  
LOGANSPORT* FAIR 25 19 80 N3 30.28R  
ROCHESTER* FAIR 28 19 69 CALM 30.28R  
WARSAW* FAIR 23 19 86 CALM 30.27R  
KENDALLVILLE* FAIR 24 19 83 CALM 30.25R  
AUBURN* FAIR 21 21 100 CALM 30.26R  
FORT WAYNE FAIR 25 23 92 W5 30.26R WCI 19  
HUNTINGTON* FAIR 21 20 96 CALM 30.27R  
 

 
INZ028>050-231200-  
CENTRAL INDIANA  
 
CITY SKY/WX TMP DP RH WIND PRES REMARKS
 
LAFAYETTE FAIR 20 19 96 N3 30.29R  
KOKOMO* FAIR 20 17 88 CALM 30.27S  
MUNCIE* FAIR 25 20 81 W3 30.26R  
INDIANAPOLIS FAIR 25 20 81 N5 30.27R WCI 19  
 

 
MIZ043>046-050>051-056>058-064>065-071>073-077>080-231200-  
SOUTHWEST LOWER MICHIGAN  
 
CITY SKY/WX TMP DP RH WIND PRES REMARKS
 
BATTLE CREEK FAIR 20 16 84 NW3 30.25R  
BENTON HARBOR FAIR 22 18 85 CALM 30.28R  
COLDWATER* FAIR 23 21 91 N3 30.24S  
HILLSDALE* FAIR 22 18 84 NW5 30.21S WCI 16  
HOLLAND FAIR 23 19 85 NW3 30.28R  
GRAND RAPIDS FAIR 23 18 81 NW5 30.26R WCI 17  
KALAMAZOO FAIR 21 17 84 NW3 30.26R  
STURGIS* FAIR 24 20 85 CALM 30.24R  
THREE RIVERS* FAIR 23 20 87 CALM 30.27R  
 

 
OHZ001>008-015>018-024>025-231200-  
NORTHWEST OHIO  
 
CITY SKY/WX TMP DP RH WIND PRES REMARKS
 
WAUSEON* FAIR 25 25 100 CALM 30.24S  
DEFIANCE FAIR 22 18 85 CALM 30.25R  
FINDLAY FAIR 26 22 84 NW6 30.23R WCI 19  
OTTAWA* FAIR 23 21 93 NW3 30.27R  
TOLEDO EXPRESS FAIR 26 18 71 W3 30.24R  
LIMA FAIR 25 22 88 NW5 30.23R WCI 19  
 

 
AND FOR LAKE MICHIGAN COASTAL AND OPEN LAKE BUOY OBSERVATIONS  
 
STATION/POSITION TEMP WIND PRES VSBY WAVE
 
AIR SEA DIR/SP/G HT/PER  
(F) (DEG/KT/KT) (MB) (MI) (FT/S)  
CALUMET HARBOR 30 1025.0R  
MICHIGAN CITY 33 320/ 6/ 7 N/A  
BURNS HARBOR 34 340/ 2/ 3 1026.1R  
SAINT JOSEPH 30 80/ 2/ 3 1026.1  
 

 

 
 
 
CLICK HERE TO GO TO PREVIOUS BULLETINS.

The Nexlab IN Page
The Nexlab OH Page
The Nexlab MI Page Main Text Page